Regional Weather Roundup
Issued by NWS Charleston, WV

Home | Current Version | Previous Version | Graphics & Text | Print | Product List | Glossary On
Versions: 1 2 3 4 5 6 7 8 9 10 11 12 13 14 15 16 17 18 19 20 21 22 23 24 25 26 27 28 29 30 31 32 33 34 35 36 37 38 39 40 41 42 43 44 45 46 47 48 49 50
826
ASUS41 KRLX 232310
RWRRLX
West Virginia Regional Weather Roundup
National Weather Service Charleston WV
Issued by National Weather Service Pittsburgh PA
600 PM EST MON JAN 23 2017

Note: "fair" indicates few or no clouds below 12,000 feet with no
significant weather and/or obstructions to visibility.

WVZ003-240000-
Northern Panhandle of West Virginia

CITY           SKY/WX    TMP DP  RH WIND       PRES   REMARKS
WHEELING       CLOUDY    36  34  92 NE13      29.56R
$$

WVZ009-240000-
Northwest West Virginia

CITY           SKY/WX    TMP DP  RH WIND       PRES   REMARKS
PARKERSBURG    CLOUDY    42  37  82 E14       29.55R
$$

WVZ006-240000-
Western West Virginia

CITY           SKY/WX    TMP DP  RH WIND       PRES   REMARKS
HUNTINGTON     LGT RAIN  46  44  93 N7        29.50R FOG
$$

WVZ015-240000-
West Central West Virginia

CITY           SKY/WX    TMP DP  RH WIND       PRES   REMARKS
CHARLESTON     CLOUDY    43  38  82 N7        29.48R
$$

WVZ031-240000-
North Central West Virginia

CITY           SKY/WX    TMP DP  RH WIND       PRES   REMARKS
CLARKSBURG     LGT RAIN  37  35  92 NE10      29.52R
MORGANTOWN     LGT RAIN  38  35  89 N8        29.54S
$$

WVZ035-042-240000-
South Central West Virginia

CITY           SKY/WX    TMP DP  RH WIND       PRES   REMARKS
BECKLEY        LGT RAIN  41  39  93 CALM      29.43R
BLUEFIELD      LGT RAIN  39  37  92 NE6       29.42R
$$

WVZ045-240000-
Greenbrier Valley of West Virginia

CITY           SKY/WX    TMP DP  RH WIND       PRES   REMARKS
LEWISBURG      LGT RAIN  38  36  93 NE5       29.44R
$$

WVZ047-240000-
Northern Mountains of West Virginia

CITY           SKY/WX    TMP DP  RH WIND       PRES   REMARKS
ELKINS         CLOUDY    39  30  70 CALM      29.47R
$$

WVZ052-240000-
Eastern Panhandle of West Virginia

CITY           SKY/WX    TMP DP  RH WIND       PRES   REMARKS
MARTINSBURG    MIX PCPN  34  33  96 N14       29.55F FOG     WCI  25
PETERSBURG     MIX PCPN  37  35  95 N3        29.57S
$$




USA.gov is the U.S. government's official web portal to all federal, state and local government web resources and services.